Date Time,Air Temp,Sky Temp,Clarity,Light Level,Rain Sensor,Readings
2011-02-24 00:00:34,16.5,5.3,11.2,0.0,2.3,111
2011-02-24 00:05:34,16.5,5.2,11.3,0.0,2.3,112
2011-02-24 00:10:34,16.5,5.3,11.2,0.0,2.3,112
2011-02-24 00:15:34,16.5,5.4,11.2,0.0,2.3,112
2011-02-24 00:20:34,16.6,5.4,11.2,0.0,2.3,112
2011-02-24 00:25:34,16.6,5.2,11.3,0.0,2.3,112
2011-02-24 00:30:34,16.6,5.1,11.5,0.0,2.3,111
2011-02-24 00:35:34,16.6,5.2,11.4,0.0,2.3,112
2011-02-24 00:40:34,16.7,5.5,11.2,0.0,2.3,112
2011-02-24 00:45:34,16.7,5.7,11.1,0.0,2.3,112
2011-02-24 00:50:34,16.7,5.5,11.2,0.0,2.3,111
2011-02-24 00:55:34,16.8,5.0,11.8,0.0,2.3,112
2011-02-24 01:00:34,16.8,4.9,11.8,0.0,2.3,112
2011-02-24 01:05:34,16.7,4.9,11.8,0.0,2.3,111
2011-02-24 01:10:34,16.8,5.2,11.6,0.0,2.3,112
2011-02-24 01:15:34,16.8,5.1,11.7,0.0,2.3,112
2011-02-24 01:20:34,16.8,5.4,11.4,0.0,2.3,111
2011-02-24 01:25:34,16.8,5.3,11.5,0.0,2.3,112
2011-02-24 01:30:34,16.8,3.7,13.1,0.0,2.3,112
2011-02-24 01:35:34,16.8,3.0,13.7,0.0,2.3,111
2011-02-24 01:40:34,16.7,0.9,15.8,0.0,2.3,111
2011-02-24 01:45:34,16.6,3.8,12.8,0.0,2.3,112
2011-02-24 01:50:34,16.7,3.6,13.0,0.0,2.3,112
2011-02-24 01:55:34,16.6,1.8,14.9,0.0,2.3,111
2011-02-24 02:00:34,16.7,1.3,15.4,0.0,2.3,111
2011-02-24 02:05:34,16.6,2.5,14.1,0.0,2.3,111
2011-02-24 02:10:34,16.6,2.6,14.0,0.0,2.3,111
2011-02-24 02:15:34,16.6,2.3,14.3,0.0,2.3,112
2011-02-24 02:20:34,16.6,5.2,11.4,0.0,2.3,111
2011-02-24 02:25:34,16.7,5.6,11.2,0.0,2.3,112
2011-02-24 02:30:34,16.8,4.4,12.4,0.0,2.3,112
2011-02-24 02:35:34,16.8,4.8,12.0,0.0,2.3,111
2011-02-24 02:40:34,16.8,5.6,11.2,0.0,2.3,112
2011-02-24 02:45:34,16.8,5.3,11.5,0.0,2.3,112
2011-02-24 02:50:34,16.8,4.6,12.2,0.0,2.3,111
2011-02-24 02:55:34,16.8,5.4,11.4,0.0,2.3,112
2011-02-24 03:00:34,16.8,5.6,11.2,0.0,2.3,112
2011-02-24 03:05:34,16.8,4.3,12.5,0.0,2.3,112
2011-02-24 03:10:34,16.8,-2.0,18.8,0.0,2.3,112
2011-02-24 03:15:34,19.2,-1.0,20.2,0.0,2.3,111
2011-02-24 03:20:34,17.6,4.2,13.5,0.0,2.4,112
2011-02-24 03:25:34,16.9,5.1,11.8,0.0,2.4,111
2011-02-24 03:30:34,16.8,5.6,11.3,0.0,2.3,112
2011-02-24 03:35:34,16.8,5.8,11.0,0.0,2.3,112
2011-02-24 03:40:34,16.8,5.1,11.7,0.0,2.3,112
2011-02-24 03:45:34,16.8,5.2,11.6,0.0,2.3,112
2011-02-24 03:50:34,16.8,5.2,11.5,0.0,2.3,111
2011-02-24 03:55:34,16.8,5.4,11.4,0.0,2.3,112
2011-02-24 04:00:34,16.8,5.4,11.4,0.0,2.3,112
2011-02-24 04:05:34,16.8,5.0,11.8,0.0,2.3,112
2011-02-24 04:10:34,16.7,4.9,11.8,0.0,2.3,112
2011-02-24 04:15:35,16.7,3.1,13.6,0.0,2.3,111
2011-02-24 04:20:35,16.6,2.7,13.9,0.0,2.2,111
2011-02-24 04:25:35,16.6,3.3,13.3,0.0,2.1,112
2011-02-24 04:30:35,16.5,3.6,12.9,0.0,2.0,111
2011-02-24 04:35:35,16.6,3.2,13.4,0.0,2.0,112
2011-02-24 04:40:35,16.6,0.6,16.0,0.0,2.0,111
2011-02-24 04:45:35,16.5,1.9,14.6,0.0,2.0,111
2011-02-24 04:50:35,16.5,1.1,15.4,0.0,2.0,112
2011-02-24 04:55:35,16.5,0.6,15.9,0.0,1.9,111
2011-02-24 05:00:35,16.5,2.8,13.7,0.0,2.0,111
2011-02-24 05:05:35,16.5,3.4,13.2,0.0,2.0,111
2011-02-24 05:10:35,16.5,3.0,13.6,0.0,2.0,112
2011-02-24 05:15:35,16.2,2.2,14.0,0.0,2.0,111
2011-02-24 05:20:35,16.4,-0.9,17.4,0.1,2.0,111
2011-02-24 05:25:35,16.4,-1.2,17.6,0.0,2.0,112
2011-02-24 05:30:35,17.3,-3.9,21.1,0.0,2.2,112
2011-02-24 05:35:35,20.0,-4.5,24.4,0.0,2.3,111
2011-02-24 05:40:35,20.7,-4.2,24.9,0.0,2.3,112
2011-02-24 05:45:35,20.9,-3.0,24.0,0.0,2.3,112
2011-02-24 05:50:35,21.0,-2.2,23.3,0.1,2.2,112
2011-02-24 05:55:35,21.1,-2.9,24.0,0.1,2.1,112
2011-02-24 06:00:35,21.0,-2.5,23.5,0.1,1.9,112
2011-02-24 06:05:35,21.0,-1.8,22.8,0.2,1.9,111
2011-02-24 06:10:35,21.0,-0.8,21.8,0.4,1.9,112
2011-02-24 06:15:35,21.1,0.3,20.8,0.7,1.9,111
2011-02-24 06:20:35,21.1,0.5,20.6,1.5,1.9,112
2011-02-24 06:25:35,20.9,0.6,20.3,3.2,1.9,111
2011-02-24 06:30:35,19.1,1.1,18.0,6.2,2.2,110
2011-02-24 06:35:35,17.1,1.5,15.7,10.5,2.4,112
2011-02-24 06:40:35,16.6,1.9,14.7,14.8,2.3,111
2011-02-24 06:45:35,16.4,2.3,14.1,19.1,2.1,111
2011-02-24 06:50:35,16.3,2.2,14.1,22.8,2.0,111
2011-02-24 06:55:35,16.2,2.1,14.0,25.5,2.1,111
2011-02-24 07:00:35,16.1,2.2,13.9,27.6,2.3,111
2011-02-24 07:05:35,16.1,2.2,13.9,28.9,2.3,110
2011-02-24 07:10:35,16.1,2.2,13.9,29.8,2.3,111
2011-02-24 07:15:35,16.2,2.3,13.9,30.7,2.3,112
2011-02-24 07:20:35,16.2,2.4,13.8,31.2,2.3,111
2011-02-24 07:25:35,16.3,2.7,13.6,31.5,2.3,111
2011-02-24 07:30:35,16.4,2.8,13.6,31.8,2.3,110
2011-02-24 07:35:35,16.2,2.7,13.4,31.9,2.1,112
2011-02-24 07:40:35,16.6,2.8,13.8,32.0,2.0,111
2011-02-24 07:45:35,16.7,2.5,14.1,32.1,2.2,111
2011-02-24 07:50:35,16.8,2.7,14.1,32.2,2.3,111
2011-02-24 07:55:35,16.8,2.8,14.0,32.2,2.3,111
2011-02-24 08:00:35,17.0,4.1,12.8,32.3,2.3,111
2011-02-24 08:05:35,17.3,4.9,12.4,32.3,2.5,112
2011-02-24 08:10:35,17.4,3.9,13.5,32.3,2.3,111
2011-02-24 08:15:35,17.4,3.7,13.7,32.4,2.3,111
2011-02-24 08:20:35,17.4,3.2,14.2,32.3,2.3,112
2011-02-24 08:25:35,17.4,3.3,14.1,32.4,2.3,111
2011-02-24 08:30:35,17.4,3.5,13.8,32.4,2.4,111
2011-02-24 08:35:35,17.4,4.3,13.1,32.4,2.5,112
2011-02-24 08:40:35,17.4,3.9,13.4,32.4,2.3,111
2011-02-24 08:45:35,17.3,4.6,12.8,32.4,2.3,112
2011-02-24 08:50:35,17.3,4.1,13.1,32.4,2.3,112
2011-02-24 08:55:35,17.2,3.8,13.4,32.4,2.3,111
2011-02-24 09:00:35,17.1,3.5,13.6,32.4,2.3,112
2011-02-24 09:05:35,17.1,3.3,13.7,32.4,2.3,111
2011-02-24 09:10:35,17.1,3.2,13.9,32.4,2.3,111
2011-02-24 09:15:35,17.1,3.2,13.8,32.4,2.3,111
2011-02-24 09:20:35,17.1,2.9,14.1,32.4,2.3,111
2011-02-24 09:25:35,17.0,2.9,14.2,32.4,2.3,111
2011-02-24 09:30:35,17.1,2.6,14.5,32.5,2.3,112
2011-02-24 09:35:35,17.2,0.6,16.6,32.5,2.3,111
2011-02-24 09:40:35,17.4,1.5,15.9,32.5,2.3,111
2011-02-24 09:45:35,17.6,2.1,15.5,32.5,2.3,111
2011-02-24 09:50:35,17.8,2.2,15.5,32.5,2.3,111
2011-02-24 09:55:35,17.9,1.8,16.2,32.5,2.3,111
2011-02-24 10:00:35,17.8,1.2,16.5,32.5,2.3,111
2011-02-24 10:05:35,18.2,0.1,18.1,32.5,2.2,112
2011-02-24 10:10:35,18.3,-0.9,19.3,32.5,2.0,112
2011-02-24 10:15:35,21.0,-2.5,23.5,32.5,2.2,111
2011-02-24 10:20:35,22.8,-5.7,28.5,32.5,2.3,112
2011-02-24 10:25:35,23.4,-5.7,29.1,32.5,2.3,111
2011-02-24 10:30:35,23.7,-5.7,29.5,32.5,2.3,111
2011-02-24 10:35:35,24.3,-7.0,31.3,32.6,2.3,112
2011-02-24 10:40:35,24.9,-8.3,33.2,32.6,2.3,112
2011-02-24 10:45:35,25.6,-8.0,33.6,32.6,2.3,111
2011-02-24 10:50:35,26.2,-5.4,31.6,32.6,2.3,112
2011-02-24 10:55:35,26.5,-6.5,33.0,32.6,2.3,112
2011-02-24 11:00:35,26.2,-8.4,34.6,32.6,2.3,111
2011-02-24 11:05:35,25.8,-7.9,33.7,32.6,2.3,112
2011-02-24 11:10:35,25.7,-9.4,35.1,32.6,2.3,111
2011-02-24 11:15:35,25.6,-9.4,35.0,32.6,2.3,112
2011-02-24 11:20:35,25.6,-9.8,35.4,32.6,2.3,111
2011-02-24 11:25:35,25.6,-10.1,35.7,32.6,2.3,112
2011-02-24 11:30:35,25.6,-10.0,35.5,32.6,2.3,112
2011-02-24 11:35:35,25.6,-9.4,35.0,32.6,2.3,112
2011-02-24 11:40:35,26.0,-8.8,34.8,32.6,2.3,111
2011-02-24 11:45:35,26.1,-10.0,36.1,32.6,2.3,112
2011-02-24 11:50:35,26.1,-9.9,35.9,32.6,2.3,111
2011-02-24 11:55:35,26.0,-9.9,35.9,32.6,2.3,112
2011-02-24 12:00:35,25.9,-9.5,35.3,32.6,2.3,112
2011-02-24 12:05:35,25.7,-10.6,36.3,32.6,2.3,112
2011-02-24 12:10:35,25.6,-10.3,35.9,32.6,2.3,112
2011-02-24 12:15:35,25.6,-9.9,35.5,32.6,2.3,112
2011-02-24 12:20:35,25.9,-8.6,34.5,32.6,2.3,111
2011-02-24 12:25:35,26.4,-8.0,34.4,32.6,2.3,112
2011-02-24 12:30:35,26.5,-8.2,34.7,32.6,2.3,111
2011-02-24 12:35:35,26.7,-8.6,35.4,32.6,2.3,112
2011-02-24 12:40:35,26.6,-9.7,36.3,32.6,2.3,112
2011-02-24 12:45:35,26.4,-10.0,36.4,32.6,2.3,112
2011-02-24 12:50:35,26.1,-9.7,35.8,32.6,2.3,112
2011-02-24 12:55:35,26.1,-9.9,35.9,32.6,2.3,112
2011-02-24 13:00:35,26.0,-9.9,35.9,32.6,2.3,112
2011-02-24 13:05:35,26.0,-9.3,35.3,32.6,2.3,111
2011-02-24 13:10:35,26.3,-9.1,35.4,32.6,2.3,112
2011-02-24 13:15:35,26.5,-9.2,35.6,32.6,2.3,112
2011-02-24 13:20:35,26.6,-8.7,35.3,32.6,2.3,111
2011-02-24 13:25:35,26.9,-9.0,35.9,32.6,2.3,112
2011-02-24 13:30:35,27.0,-9.2,36.2,32.6,2.3,112
2011-02-24 13:35:35,26.9,-8.2,35.1,32.6,2.2,112
2011-02-24 13:40:35,27.2,-7.8,35.0,32.6,2.2,111
2011-02-24 13:45:35,27.5,-7.7,35.2,32.6,2.3,112
2011-02-24 13:50:35,27.8,-7.3,35.1,32.6,2.3,111
2011-02-24 13:55:35,27.9,-8.0,35.9,32.6,2.4,112
2011-02-24 14:00:35,27.6,-9.1,36.7,32.6,2.3,111
2011-02-24 14:05:35,27.1,-8.3,35.4,32.6,2.3,112
2011-02-24 14:10:35,26.9,-8.9,35.7,32.6,2.3,112
2011-02-24 14:15:35,26.8,-8.8,35.5,32.6,2.1,112
2011-02-24 14:20:35,26.7,-8.6,35.4,32.6,2.1,111
2011-02-24 14:25:35,26.8,-8.7,35.4,32.6,2.1,112
2011-02-24 14:30:35,26.9,-8.8,35.7,32.6,2.1,112
2011-02-24 14:35:35,27.0,-9.0,36.0,32.6,2.1,111
2011-02-24 14:40:35,27.1,-7.9,35.0,32.6,2.1,112
2011-02-24 14:45:35,27.2,-8.0,35.2,32.6,2.3,111
2011-02-24 14:50:35,27.5,-7.5,35.0,32.6,2.3,112
2011-02-24 14:55:35,27.9,-8.0,35.9,32.6,2.4,111
2011-02-24 15:00:35,27.9,-8.4,36.3,32.6,2.3,112
2011-02-24 15:05:35,27.8,-9.4,37.2,32.6,2.4,112
2011-02-24 15:10:35,27.5,-8.6,36.1,32.6,2.3,112
2011-02-24 15:15:35,27.5,-8.5,36.0,32.6,2.3,112
2011-02-24 15:20:35,27.6,-8.8,36.4,32.6,2.4,112
2011-02-24 15:25:35,27.6,-9.6,37.2,32.6,2.4,111
2011-02-24 15:30:35,27.0,-10.1,37.2,32.6,2.3,112
2011-02-24 15:35:35,27.3,-10.1,37.4,32.6,2.3,112
2011-02-24 15:40:35,27.0,-11.0,38.1,32.6,2.3,112
2011-02-24 15:45:35,26.6,-11.4,37.9,32.6,2.2,111
2011-02-24 15:50:35,26.3,-10.6,36.9,32.6,2.3,112
2011-02-24 15:55:35,26.3,-10.8,37.1,32.6,2.3,112
2011-02-24 16:00:35,26.3,-10.6,36.8,32.6,2.3,112
2011-02-24 16:05:35,26.2,-10.5,36.6,32.6,2.3,111
2011-02-24 16:10:35,26.2,-10.1,36.4,32.6,2.3,112
2011-02-24 16:15:35,26.3,-10.6,36.9,32.6,2.3,112
2011-02-24 16:20:35,26.2,-10.2,36.4,32.6,2.3,112
2011-02-24 16:25:35,26.3,-11.0,37.3,32.6,2.3,112
2011-02-24 16:30:35,26.3,-10.9,37.2,32.6,2.3,111
2011-02-24 16:35:35,26.0,-11.2,37.2,32.6,2.3,112
2011-02-24 16:40:35,25.8,-10.9,36.7,32.6,2.3,111
2011-02-24 16:45:35,25.6,-11.5,37.0,32.5,2.3,111
2011-02-24 16:50:35,25.3,-11.3,36.6,32.5,2.3,112
2011-02-24 16:55:35,25.2,-11.6,36.8,32.5,2.3,111
2011-02-24 17:00:35,24.9,-12.4,37.3,32.4,2.3,111
2011-02-24 17:05:35,24.4,-12.7,37.2,32.4,2.3,112
2011-02-24 17:10:35,24.0,-12.9,36.9,32.4,2.3,112
2011-02-24 17:15:35,23.8,-12.9,36.7,32.3,2.3,111
2011-02-24 17:20:35,23.6,-12.9,36.5,32.2,2.3,112
2011-02-24 17:25:35,23.4,-12.8,36.1,32.1,2.3,111
2011-02-24 17:30:35,23.2,-12.0,35.2,31.8,2.3,111
2011-02-24 17:35:35,23.1,-11.4,34.6,31.4,2.3,111
2011-02-24 17:40:35,22.9,-12.1,35.1,30.9,2.3,112
2011-02-24 17:45:35,22.6,-12.1,34.7,30.3,2.3,111
2011-02-24 17:50:35,22.4,-12.9,35.3,29.5,2.3,112
2011-02-24 17:55:35,22.1,-13.3,35.3,27.6,2.3,111
2011-02-24 18:00:35,21.6,-13.4,35.0,22.6,2.3,112
2011-02-24 18:05:35,21.2,-13.6,34.7,15.7,2.4,112
2011-02-24 18:10:35,20.6,-13.7,34.4,9.6,2.3,111
2011-02-24 18:15:35,20.6,-13.2,33.8,5.3,2.3,112
2011-02-24 18:20:35,20.6,-11.9,32.6,2.8,2.3,111
2011-02-24 18:25:35,20.6,-10.0,30.7,1.4,2.3,112
2011-02-24 18:30:35,20.8,-4.0,24.8,0.6,2.3,112
2011-02-24 18:35:35,20.9,-1.8,22.8,0.3,2.3,111
2011-02-24 18:40:35,21.1,-1.7,22.8,0.2,2.3,112
2011-02-24 18:45:35,21.3,-3.7,25.0,0.1,2.3,111
2011-02-24 18:50:35,21.6,-3.6,25.3,0.1,2.3,112
2011-02-24 18:55:35,21.4,-7.5,28.9,0.1,2.3,112
2011-02-24 19:00:35,20.9,-10.5,31.4,0.0,2.3,111
2011-02-24 19:05:35,20.9,-9.6,30.4,0.0,2.2,112
2011-02-24 19:10:35,21.1,-10.2,31.3,0.0,2.0,112
2011-02-24 19:15:35,21.1,-12.3,33.4,0.0,2.1,112
2011-02-24 19:20:35,21.1,-13.4,34.5,0.0,2.1,111
2011-02-24 19:25:36,21.0,-13.4,34.4,0.0,1.9,112
2011-02-24 19:30:36,20.7,-13.4,34.0,0.0,1.9,112
2011-02-24 19:35:36,20.7,-13.7,34.4,0.0,1.9,111
2011-02-24 19:40:36,20.7,-13.7,34.4,0.0,2.2,112
2011-02-24 19:45:36,20.6,-13.6,34.3,0.0,2.3,111
2011-02-24 19:50:36,20.5,-13.5,34.0,0.0,2.3,112
2011-02-24 19:55:36,20.3,-14.9,35.1,0.0,2.3,111
2011-02-24 20:00:36,20.1,-15.7,35.8,0.0,2.3,112
2011-02-24 20:05:36,20.0,-15.3,35.3,0.0,2.3,111
2011-02-24 20:10:36,19.9,-14.8,34.7,0.0,2.3,112
2011-02-24 20:15:36,19.9,-16.2,36.1,0.0,2.3,111
2011-02-24 20:20:36,19.5,-16.2,35.7,0.0,2.3,111
2011-02-24 20:25:36,19.8,-16.2,35.9,0.0,2.3,111
2011-02-24 20:30:36,19.7,-16.5,36.2,0.0,2.3,112
2011-02-24 20:35:36,19.6,-16.3,35.9,0.0,2.3,112
2011-02-24 20:40:36,19.6,-15.3,34.9,0.0,2.3,111
2011-02-24 20:45:36,19.7,-13.4,33.0,0.0,2.3,112
2011-02-24 20:50:36,19.8,-13.4,33.3,0.0,2.3,111
2011-02-24 20:55:36,19.8,-14.0,33.8,0.0,2.3,112
2011-02-24 21:00:36,19.8,-13.0,32.8,0.0,2.3,112
2011-02-24 21:05:36,19.7,-12.3,32.0,0.0,2.3,111
2011-02-24 21:10:36,19.7,-13.0,32.7,0.0,2.3,111
2011-02-24 21:15:36,19.6,-12.9,32.5,0.0,2.3,112
2011-02-24 21:20:36,19.6,-12.0,31.6,0.0,2.3,111
2011-02-24 21:25:36,19.6,-11.0,30.6,0.0,2.3,112
2011-02-24 21:30:36,19.6,-11.2,30.7,0.0,2.3,111
2011-02-24 21:35:36,19.6,-10.4,29.9,0.0,2.3,112
2011-02-24 21:40:36,19.6,-9.9,29.4,0.0,2.3,111
2011-02-24 21:45:36,19.5,-11.3,30.8,0.0,2.3,112
2011-02-24 21:50:36,19.5,-10.7,30.2,0.0,2.3,111
2011-02-24 21:55:36,19.5,-8.8,28.3,0.0,2.3,112
2011-02-24 22:00:36,19.4,-9.9,29.2,0.0,2.3,112
2011-02-24 22:05:36,19.3,-10.5,29.8,0.0,2.3,112
2011-02-24 22:10:36,19.2,-9.8,29.0,0.0,2.3,111
2011-02-24 22:15:36,19.3,-9.6,28.9,0.0,2.3,112
2011-02-24 22:20:36,19.3,-8.8,28.1,0.0,2.3,112
2011-02-24 22:25:36,19.6,-7.4,27.0,0.0,2.3,112
2011-02-24 22:30:36,19.4,-5.9,25.3,0.0,2.3,111
2011-02-24 22:35:36,19.7,-7.7,27.4,0.0,2.3,112
2011-02-24 22:40:36,19.6,-10.4,30.0,0.0,2.3,111
2011-02-24 22:45:36,19.5,-11.1,30.6,0.0,2.3,112
2011-02-24 22:50:36,19.4,-10.9,30.3,0.0,2.3,111
2011-02-24 22:55:36,19.4,-11.0,30.4,0.0,2.3,112
2011-02-24 23:00:36,19.3,-10.7,30.1,0.0,2.3,112
2011-02-24 23:05:36,19.3,-8.6,27.9,0.0,2.3,112
2011-02-24 23:10:36,19.3,-7.8,27.2,0.0,2.3,111
2011-02-24 23:15:36,19.4,-9.5,28.9,0.0,2.3,112
2011-02-24 23:20:36,19.3,-10.0,29.3,0.0,2.3,112
2011-02-24 23:25:36,19.3,-9.5,28.8,0.0,2.3,112
2011-02-24 23:30:36,19.2,-8.8,28.1,0.0,2.3,112
2011-02-24 23:35:36,19.2,-8.8,27.9,0.0,2.3,111
2011-02-24 23:40:36,19.3,-8.8,28.1,0.0,2.3,112
2011-02-24 23:45:36,19.3,-8.8,28.1,0.0,2.3,112
2011-02-24 23:50:36,19.4,-8.9,28.2,0.0,2.3,111
2011-02-24 23:55:36,19.5,-9.1,28.5,0.0,2.3,112
